Track COSMOS 530 now! 10-day predictions COSMOS 530 is classified as:
1 06265U 72087C 21110.85115550 -.00000015 00000-0 54356-5 0 9993 2 06265 74.0378 355.5794 0086401 56.5553 16.3982 12.65630114239301